Zurück zum Katalog

DEB FREGAT

AktivKommunikationSSO
NORAD 67249·PAYLOAD·🇷🇺 Russia
Dieser Satellitenname wurde noch nicht durch offizielle Quellen bestätigt.

Gestartet Dec 28, 2025 von Vostochny Cosmodrome

Loading…

Nächste Überflüge (nächste 24 Stunden)

TLE

AktuellSource: Space-Track

Epoche: Sep 14, 2026, 09:49 UTC

1 67249U 25313B   26257.40906082  .00002093  00000-0  16061-3 0  9994
2 67249  97.5019 316.4458 0292158  45.1941 317.2624 14.74681186 38285

Verfolge DEB FREGAT in Echtzeit mit AllMySat

Download on the App Store